TimeCST,TemperatureF,Dew PointF,Humidity,Sea Level PressureIn,VisibilityMPH,Wind Direction,Wind SpeedMPH,Gust SpeedMPH,PrecipitationIn,Events,Conditions,WindDirDegrees,DateUTC
12:14 AM,46.4,35.6,66,30.06,10.0,South,13.8,19.6,N/A,,Clear,190,2012-11-18 06:14:00
12:34 AM,46.4,35.6,66,30.06,10.0,South,11.5,19.6,N/A,,Clear,190,2012-11-18 06:34:00
12:54 AM,44.6,35.6,71,30.05,10.0,South,10.4,17.3,N/A,,Clear,190,2012-11-18 06:54:00
1:14 AM,44.6,35.6,71,30.05,10.0,SSW,15.0,19.6,N/A,,Clear,200,2012-11-18 07:14:00
1:34 AM,44.6,35.6,71,30.05,10.0,SSW,13.8,18.4,N/A,,Clear,200,2012-11-18 07:34:00
1:54 AM,44.6,33.8,66,30.05,10.0,South,13.8,-,N/A,,Clear,190,2012-11-18 07:54:00
2:14 AM,44.6,35.6,71,30.05,10.0,SSW,12.7,21.9,N/A,,Clear,200,2012-11-18 08:14:00
2:34 AM,44.6,35.6,71,30.05,10.0,SSW,12.7,20.7,N/A,,Clear,200,2012-11-18 08:34:00
2:54 AM,44.6,35.6,71,30.05,10.0,SSW,12.7,19.6,N/A,,Clear,200,2012-11-18 08:54:00
3:14 AM,44.6,35.6,71,30.04,10.0,SSW,11.5,17.3,N/A,,Clear,200,2012-11-18 09:14:00
3:34 AM,42.8,33.8,70,30.04,10.0,SSW,11.5,18.4,N/A,,Clear,200,2012-11-18 09:34:00
3:54 AM,42.8,33.8,70,30.03,10.0,SSW,10.4,-,N/A,,Clear,200,2012-11-18 09:54:00
4:14 AM,42.8,33.8,70,30.03,10.0,SSW,10.4,-,N/A,,Clear,200,2012-11-18 10:14:00
4:34 AM,42.8,33.8,70,30.03,10.0,SSW,9.2,-,N/A,,Clear,200,2012-11-18 10:34:00
4:54 AM,41.0,33.8,76,30.04,10.0,SSW,8.1,-,N/A,,Clear,200,2012-11-18 10:54:00
5:14 AM,41.0,33.8,76,30.04,10.0,SSW,8.1,-,N/A,,Clear,200,2012-11-18 11:14:00
5:34 AM,41.0,33.8,76,30.04,10.0,South,8.1,-,N/A,,Clear,190,2012-11-18 11:34:00
5:54 AM,39.2,33.8,81,30.04,10.0,South,8.1,-,N/A,,Clear,190,2012-11-18 11:54:00
6:13 AM,39.2,33.8,81,30.04,10.0,South,5.8,-,N/A,,Clear,190,2012-11-18 12:13:00
6:34 AM,39.2,33.8,81,30.03,10.0,South,5.8,-,N/A,,Clear,190,2012-11-18 12:34:00
6:54 AM,35.6,32.0,87,30.03,10.0,South,4.6,-,N/A,,Clear,190,2012-11-18 12:54:00
7:14 AM,35.6,30.2,81,30.03,10.0,South,4.6,-,N/A,,Clear,170,2012-11-18 13:14:00
7:34 AM,35.6,30.2,81,30.03,10.0,South,5.8,-,N/A,,Clear,170,2012-11-18 13:34:00
7:54 AM,35.6,30.2,81,30.03,10.0,South,6.9,-,N/A,,Clear,170,2012-11-18 13:54:00
8:14 AM,37.4,32.0,81,30.04,10.0,South,4.6,-,N/A,,Clear,190,2012-11-18 14:14:00
8:34 AM,39.2,33.8,81,30.04,10.0,South,6.9,-,N/A,,Clear,190,2012-11-18 14:34:00
8:54 AM,41.0,33.8,76,30.03,10.0,SSW,6.9,-,N/A,,Clear,200,2012-11-18 14:54:00
9:14 AM,42.8,33.8,70,30.03,10.0,SSW,6.9,-,N/A,,Clear,210,2012-11-18 15:14:00
9:34 AM,44.6,33.8,66,30.04,10.0,SSW,6.9,-,N/A,,Clear,200,2012-11-18 15:34:00
9:54 AM,44.6,33.8,66,30.04,10.0,SSW,8.1,-,N/A,,Clear,210,2012-11-18 15:54:00
10:14 AM,46.4,33.8,62,30.04,10.0,SW,8.1,-,N/A,,Clear,220,2012-11-18 16:14:00
10:34 AM,46.4,33.8,62,30.03,10.0,SSW,9.2,-,N/A,,Clear,200,2012-11-18 16:34:00
10:54 AM,48.2,35.6,62,30.03,10.0,SSW,5.8,-,N/A,,Clear,210,2012-11-18 16:54:00
11:14 AM,51.8,35.6,54,30.02,10.0,SW,8.1,-,N/A,,Clear,220,2012-11-18 17:14:00
11:34 AM,51.8,35.6,54,30.02,10.0,SSW,9.2,-,N/A,,Clear,210,2012-11-18 17:34:00
11:54 AM,53.6,35.6,51,30.01,10.0,SSW,9.2,-,N/A,,Clear,200,2012-11-18 17:54:00
12:14 PM,55.4,35.6,47,30.00,10.0,SSW,9.2,-,N/A,,Clear,210,2012-11-18 18:14:00
12:34 PM,55.4,37.4,51,30.00,10.0,SSW,6.9,-,N/A,,Clear,210,2012-11-18 18:34:00
12:54 PM,57.2,37.4,48,29.99,10.0,SSW,10.4,-,N/A,,Clear,210,2012-11-18 18:54:00
1:14 PM,57.2,37.4,48,29.99,10.0,South,11.5,16.1,N/A,,Clear,190,2012-11-18 19:14:00
1:34 PM,59.0,37.4,45,29.98,10.0,SSW,9.2,-,N/A,,Clear,200,2012-11-18 19:34:00
1:54 PM,59.0,37.4,45,29.98,10.0,South,12.7,-,N/A,,Clear,190,2012-11-18 19:54:00
2:14 PM,57.2,37.4,48,29.98,10.0,South,12.7,-,N/A,,Clear,190,2012-11-18 20:14:00
2:34 PM,59.0,37.4,45,29.97,10.0,SSW,13.8,-,N/A,,Clear,200,2012-11-18 20:34:00
2:54 PM,59.0,37.4,45,29.97,10.0,SSW,12.7,18.4,N/A,,Clear,200,2012-11-18 20:54:00
3:14 PM,59.0,37.4,45,29.97,10.0,South,11.5,17.3,N/A,,Scattered Clouds,190,2012-11-18 21:14:00
3:34 PM,57.2,37.4,48,29.97,10.0,SSW,13.8,20.7,N/A,,Scattered Clouds,200,2012-11-18 21:34:00
3:54 PM,57.2,37.4,48,29.98,10.0,South,10.4,-,N/A,,Clear,190,2012-11-18 21:54:00
4:14 PM,57.2,37.4,48,29.98,10.0,South,9.2,16.1,N/A,,Clear,190,2012-11-18 22:14:00
4:34 PM,55.4,37.4,51,29.98,10.0,South,10.4,16.1,N/A,,Clear,190,2012-11-18 22:34:00
4:54 PM,55.4,37.4,51,29.98,10.0,South,11.5,-,N/A,,Clear,190,2012-11-18 22:54:00
5:14 PM,53.6,37.4,54,29.98,10.0,South,10.4,18.4,N/A,,Clear,190,2012-11-18 23:14:00
5:34 PM,53.6,37.4,54,29.98,10.0,South,9.2,-,N/A,,Clear,180,2012-11-18 23:34:00
5:54 PM,51.8,37.4,58,29.99,10.0,South,10.4,-,N/A,,Clear,180,2012-11-18 23:54:00
6:13 PM,50.0,37.4,62,-9999,10.0,South,8.1,-,N/A,,Clear,180,2012-11-19 00:13:00
6:34 PM,50.0,37.4,62,29.99,10.0,South,9.2,-,N/A,,Clear,180,2012-11-19 00:34:00
6:54 PM,51.8,37.4,58,29.99,10.0,South,9.2,-,N/A,,Clear,190,2012-11-19 00:54:00
7:13 PM,51.8,37.4,58,30.00,10.0,South,10.4,-,N/A,,Clear,190,2012-11-19 01:13:00
7:34 PM,51.8,37.4,58,30.00,10.0,SSW,10.4,-,N/A,,Clear,200,2012-11-19 01:34:00
7:54 PM,51.8,37.4,58,29.99,10.0,South,9.2,-,N/A,,Clear,190,2012-11-19 01:54:00
8:13 PM,51.8,37.4,58,30.00,10.0,South,9.2,-,N/A,,Clear,180,2012-11-19 02:13:00
8:34 PM,50.0,35.6,58,29.99,10.0,South,9.2,-,N/A,,Clear,190,2012-11-19 02:34:00
8:54 PM,50.0,35.6,58,29.99,10.0,South,9.2,-,N/A,,Clear,190,2012-11-19 02:54:00
9:14 PM,48.2,35.6,62,30.00,10.0,South,10.4,-,N/A,,Clear,190,2012-11-19 03:14:00
9:34 PM,48.2,35.6,62,30.00,10.0,SSW,10.4,-,N/A,,Clear,200,2012-11-19 03:34:00
9:54 PM,48.2,35.6,62,29.99,10.0,South,9.2,-,N/A,,Clear,190,2012-11-19 03:54:00
10:14 PM,46.4,35.6,66,29.99,10.0,South,8.1,-,N/A,,Clear,190,2012-11-19 04:14:00
10:34 PM,46.4,35.6,66,29.99,10.0,South,9.2,-,N/A,,Clear,190,2012-11-19 04:34:00
10:54 PM,48.2,35.6,62,29.98,10.0,South,9.2,-,N/A,,Clear,190,2012-11-19 04:54:00
11:14 PM,46.4,35.6,66,29.98,10.0,SSW,9.2,-,N/A,,Clear,200,2012-11-19 05:14:00
11:34 PM,46.4,35.6,66,29.98,10.0,SSW,10.4,-,N/A,,Clear,200,2012-11-19 05:34:00
11:54 PM,46.4,35.6,66,29.98,10.0,SSW,11.5,-,N/A,,Clear,200,2012-11-19 05:54:00